Home > Weather > Lahti > Past weeks

Flag for Finland Past Weather in Lahti, Finland — Yesterday and Last 2 Weeks

Now
52 °F

Passing clouds.


Feels Like: 49 °F
Forecast: 50 / 55 °F
Wind: 7 mph from East

Location: Utti

Current Time: Aug 29, 2016 at 1:49:02 AM

Latest Report: Aug 29, 2016 at 1:20 AM


Visibility: N/A

Pressure: 30.07 "Hg

Humidity: 77%

Dew Point: 45 °F

Location of LahtiLocation

Past Weather in Lahti — Graph

°F

Lahti Temperature Yesterday

Maximum temperature yesterday: 63 °F (at 2:20 PM)
Minimum temperature yesterday: 50 °F (at 6:20 AM)
Average temperature yesterday: 56 °F

High & Low Weather Summary for the Past Weeks

 TemperatureHumidityPressure
High73 °F (Aug 20, 3:20 PM)100% (Aug 14, 12:20 AM)30.21 "Hg (Aug 14, 12:20 AM)
Low46 °F (Aug 25, 2:20 AM)42% (Aug 28, 2:50 PM)29.59 "Hg (Aug 16, 9:50 AM)
Average60 °F81%29.95 "Hg
* Reported Aug 14 12:20 AM — Aug 29 12:20 AM, Lahti, Weather by CustomWeather, © 2016

Note: Actual official high and low records may vary slightly from our data, if they occured in-between our weather recording intervals... More about our weather records

Advertising

Lahti Weather History for the Previous 24 Hours

Scroll right to see more
 ConditionsComfort  
Time TempWeatherWind HumidityBarometerVisibility
12:20 AM
Mon, Aug 29
52 °FMostly cloudy.7 mph77%30.07 "HgN/A
11:50 PM
Sun, Aug 28
54 °FPassing clouds.7 mph72%30.07 "HgN/A
11:20 PM54 °FPartly cloudy.7 mph72%30.07 "HgN/A
10:50 PM54 °FPassing clouds.7 mph72%30.07 "HgN/A
10:20 PM54 °FClear.6 mph72%30.07 "Hg10 mi
9:50 PM54 °FPartly cloudy.5 mph72%30.09 "HgN/A
9:20 PM55 °FPartly sunny.3 mph67%30.09 "HgN/A
8:50 PM55 °FPartly sunny.3 mph67%30.09 "HgN/A
8:20 PM55 °FPartly sunny.3 mph67%30.09 "HgN/A
7:50 PM57 °FPartly sunny.3 mph59%30.09 "HgN/A
7:20 PM57 °FPartly sunny.2 mph63%30.09 "HgN/A
6:50 PM59 °FSunny.1 mph55%30.09 "Hg10 mi
6:20 PM59 °FSunny.5 mph51%30.09 "Hg10 mi
5:50 PM61 °FPassing clouds.5 mph48%30.09 "HgN/A
5:20 PM61 °FPartly sunny.5 mph45%30.09 "HgN/A
4:50 PM61 °FPartly sunny.5 mph45%30.09 "HgN/A
4:20 PM61 °FPassing clouds.5 mph48%30.09 "HgN/A
3:50 PM61 °FPassing clouds.6 mph48%30.09 "HgN/A
3:20 PM61 °FPassing clouds.9 mph45%30.09 "HgN/A
2:50 PM63 °FPassing clouds.7 mph42%30.09 "HgN/A
2:20 PM63 °FPassing clouds.7 mph45%30.09 "HgN/A
1:50 PM61 °FPassing clouds.10 mph48%30.09 "HgN/A
1:20 PM59 °FScattered clouds.8 mph55%30.09 "HgN/A
12:50 PM59 °FPassing clouds.8 mph55%30.09 "HgN/A
12:20 PM61 °FPassing clouds.9 mph55%30.09 "HgN/A
11:50 AM59 °FPassing clouds.9 mph59%30.09 "HgN/A
11:20 AM59 °FPassing clouds.10 mph59%30.09 "HgN/A
10:50 AM57 °FPassing clouds.9 mph63%30.07 "HgN/A
10:20 AM55 °FPassing clouds.9 mph67%30.07 "HgN/A
9:50 AM55 °FPassing clouds.10 mph67%30.07 "HgN/A
9:20 AM54 °FPassing clouds.12 mph67%30.04 "HgN/A
8:50 AM54 °FPassing clouds.10 mph67%30.04 "HgN/A
8:20 AM54 °FPassing clouds.9 mph72%30.04 "HgN/A
7:50 AM52 °FPassing clouds.8 mph77%30.01 "HgN/A
7:20 AM52 °FPassing clouds.9 mph77%29.98 "HgN/A
6:50 AM52 °FPassing clouds.7 mph77%29.98 "HgN/A
6:20 AM50 °FPassing clouds.7 mph82%29.98 "HgN/A
5:50 AM52 °FPassing clouds.8 mph72%29.98 "HgN/A
5:20 AM52 °FPassing clouds.9 mph72%29.95 "HgN/A
4:50 AM52 °FPassing clouds.8 mph72%29.95 "HgN/A
4:20 AM52 °FPassing clouds.13 mph67%29.92 "HgN/A
3:50 AM54 °FPassing clouds.15 mph63%29.92 "HgN/A
3:20 AM54 °FPassing clouds.10 mph67%29.92 "HgN/A
2:50 AM55 °FPassing clouds.15 mph59%29.89 "HgN/A
2:20 AM55 °FPassing clouds.15 mph63%29.86 "HgN/A
1:50 AM55 °FPassing clouds.13 mph59%29.86 "HgN/A
1:20 AM55 °FPassing clouds.12 mph63%29.86 "HgN/A
Weather by CustomWeather, © 2016

See weather overviewHow to use our weather pages